Powrót do katalogu

STARLINK-4421

AktywnyŁącznośćSSO
NORAD 53488·PAYLOAD·🇺🇸 United States

Wystrzelony Aug 12, 2022 z Vandenberg Space Force Base

Loading…

Następne Przeloty (najbliższe 24 godziny)

TLE

ŚwieżeSource: CelesTrak SupGP

Epoka: Sep 14, 2026, 20:32 UTC

1 53488C 22099Z   26257.85604167 -.00013941  00000+0 -43289-3 0  2574
2 53488  97.2857  15.6427 0001009  98.3515  17.3073 15.33436002    13

Śledź STARLINK-4421 w czasie rzeczywistym z AllMySat

Download on the App Store